COSMOS 2251 DEB, 47052

Orbit data source: Space-Track

COSMOS 2251 DEB, 47052 is space debris in LEO originally from a launch on Wed, 16 Jun 1993 UTC launched from the Plesetsk Missile And Space Complex (PKMTR). The debris from Iridium 33, an American commercial communications satellite, has been tracked extensively since its accidental collision with the defunct Russian satellite Cosmos 2251 in 2009. This event, occurring at high speed in low Earth orbit (LEO), generated thousands of pieces of space debris, significantly increasing the risk of further collisions. The Iridium 33 debris cloud has impacted space traffic management and orbital debris mitigation strategies, making it a subject of ongoing study in space situational awareness.

Loading next visibility...
Identifier
47052, 1993-036BXG
Orbit
LEO
Country
Flag of CISCIS
Related business
Manufacturer
Unknown
Mission
Spacecraft
Bus & Motor
Unknown
Mass
Unknown
Launch date (UTC)
1993-06-16 (33 years ago)
Launch vehicle
Unknown
Launch site
Plesetsk Missile And Space Complex (PKMTR)
Object type
Payload
Rocket body
Debris
Shape & HBR
Unknown shape, 0.1 m
Radar Cross Section
Small (<0.1 m²)

Expand to show TLE details & history
Last TLE update: 6 days ago

TLE from 6 days ago
0 COSMOS 2251 DEB
1 47052U 93036BXG 26249.24268610  .00000313  00000-0  11494-3 0  9990
2 47052  74.0482 209.8369 0060278 220.2288 204.1989 14.35845483656284
Epoch: 2026-09-06T05:49Z
TLE epoch observation values (Epoch: 2026-09-06T05:49:28.079Z)
Latitude
60.01701°
Longitude
166.65408°
Altitude
821.477 km
Speed
7.428 km/s
True Right ascension
15h 57m 26s
True Declination
59° 52' 09"
Sunlit
Object was in daylight at epoch
Visualization orbit readout
Latitude
Unknown
Longitude
Unknown
Altitude
Unknown
Speed
Unknown
Apparent Right ascension
Unknown
Apparent Declination
Unknown
Sunlit
N/A
Visualization observer readout
Local Sidereal Time
09:39:25
Azimuth
Unknown
Elevation
Unknown
Doppler factor
Unknown
Orbital elements
Apogee altitude
812.968 km
Perigee altitude
726.794 km
Semi-major axis
7,148.018 km
Eccentricity
0.00603
Inclination
74.0482°
RAAN
209.8369°
Arg. of periapsis
220.2288°
True anomaly
203.9177°
Mean anomaly
204.1989°
Eccentric anomaly
204.05811°
Mean motion
3.59141 °/min
Orbital period
100.24 mins
BSTAR
0.00011494
Loading maneuver chart data...
Computing Atmospheric mass density...

Documentation

Showing up to 5 results
|